COSMOS 1275 DEB, 39964

Orbit data source: Space-Track

COSMOS 1275 DEB, 39964 is space debris in LEO originally from a launch on Thu, 04 Jun 1981 UTC launched from the Plesetsk Missile And Space Complex (PKMTR). Debris objects in space refer to the collection of defunct objects orbiting the Earth. Examples of debris include non-operational satellites, rocket bodies, and fragments generated from explosions, collisions, or faulty payload assembly.

Loading next visibility...
Identifier
39964, 1981-053PA
Orbit
LEO
Country
Flag of CISCIS
Related business
Manufacturer
Unknown
Mission
Spacecraft
Bus & Motor
Unknown
Mass
Unknown
Launch date (UTC)
1981-06-04 (45 years ago)
Launch vehicle
Unknown
Launch site
Plesetsk Missile And Space Complex (PKMTR)
Object type
Payload
Rocket body
Debris
Shape & HBR
Unknown shape, 0.1 m
Radar Cross Section
Small (<0.1 m²)

Expand to show TLE details & history
Last TLE update: 2 days ago

TLE from 2 days ago
0 COSMOS 1275 DEB
1 39964U 81053PA  26205.30171184  .00580553  00000-0  95782-2 0  9997
2 39964  83.0320 159.9393 0009569 101.5271 258.7056 15.50165495643944
Epoch: 2026-07-24T07:14Z
TLE epoch observation values (Epoch: 2026-07-24T07:14:27.902Z)
Latitude
-0.00011°
Longitude
109.29272°
Altitude
420.666 km
Speed
7.658 km/s
True Right ascension
10h 39m 45s
True Declination
0° 00' 00"
Sunlit
Object was in daylight at epoch
Visualization orbit readout
Latitude
Unknown
Longitude
Unknown
Altitude
Unknown
Speed
Unknown
Apparent Right ascension
Unknown
Apparent Declination
Unknown
Sunlit
N/A
Visualization observer readout
Local Sidereal Time
15:22:07
Azimuth
Unknown
Elevation
Unknown
Doppler factor
Unknown
Orbital elements
Apogee altitude
419.648 km
Perigee altitude
406.651 km
Semi-major axis
6,791.287 km
Eccentricity
0.00096
Inclination
83.032°
RAAN
159.9393°
Arg. of periapsis
101.5271°
True anomaly
258.5981°
Mean anomaly
258.7056°
Eccentric anomaly
258.65185°
Mean motion
3.87806 °/min
Orbital period
92.83 mins
BSTAR
0.0095782
Loading maneuver chart data...
Computing Atmospheric mass density...

Documentation

Showing up to 5 results
|